Imperial County Airport
KIPL : now visible

Airfield :











YOU CAN JOIN US ON...

 
LOGIN :

Register | Disclaimer

   EN    FR    IT 

 









Legend :    VFR   Marginal VFR   IFR   Intensive IFR   Very Intensive IFR
Visi :
Ceiling :
>= 8 km
>= 3000ft
5 to 8 km
1000 to 3000 ft
1500m to 5 km
500 to 1000 ft
800 to 1500m
200 to 500 ft
< 800m
< 200 ft
Symbols :   Thunderstorms  Fog  Heavy snow  Heavy precipitations  Wind > 20 kt







- Airport Elevation : -54 ft


KIPL - Imperial County

CURRENT METAR :
  • 200853Z AUTO 30010KT 10SM CLR 23/02 A2972 RMK AO2 SLP064 T02280022 53012

EXPIRED METARs :
  • 200753Z AUTO 28018G24KT 10SM CLR 24/09 A2970 RMK AO2 SLP058 T02390089 403670211
  • 200653Z AUTO 29006KT 10SM CLR 21/06 A2969 RMK AO2 SLP056 T02110061

TAF KIPL
Valid from the 20 at 08:00 until the 21 at 06:00 UTC


200816Z 2008/2106 27016KT P6SM SKC
FM201000 30010KT P6SM SKC
No reported NOTAMs for that airfield.



MET'MAP, your aeronautical weather chart ! - Copyright ORBIFLY December 2007 - Disclaimer

ORBIFLY MET'MAP TEAM :

Programming & Development : Alexandra Zaïnal
Concept & Development : Baudouin d'Aumeries
Co-Development & Prog : Marc-Olivier Méhu
Technical & hardware support : Manuel Goepfert

Contact : metmap@orbifly.com




SOURCES & CREDITS :

   NOAA       Earth
Advisory